[Date Prev][Date Next][Thread Prev][Thread Next] - [Date Index][Thread Index][Author Index]

2 Line ISS Keps 7-9



ISS
1 25544U 98067A   05190.99312319  .00011707  00000-0  94219-4 0  8750
2 25544 051.6441 144.0497 0003734 102.6192 341.2199 15.71449086379272
----
Via the sarex mailing list at AMSAT.ORG courtesy of AMSAT-NA.
To unsubscribe, send "unsubscribe sarex" to Majordomo@amsat.org



AMSAT Top AMSAT Home